• In Hungary
  • List of Countries
  • For 7 days
  • Water Temperature
  • Satellite Maps
  • Weather Map
  • News
  • Weather Widgets
  • user-avatar
    Login

    Hourly Weather Belozerka

    Today, 18 September, Tuesday

    Time Temperature Precipitation Wind Pressure Humidity
    00:00 +16°C° 0 mm 2 mps 767 mmHg 48%
    01:00 +15°C° 0 mm 2 mps 767 mmHg 50%
    02:00 +15°C° 0 mm 1 mps 767 mmHg 51%
    03:00 +15°C° 0 mm 1 mps 767 mmHg 52%
    04:00 +14°C° 0 mm 1 mps 767 mmHg 53%
    05:00 +14°C° 0 mm 1 mps 767 mmHg 54%
    06:00 +16°C° 0 mm 1 mps 767 mmHg 50%
    07:00 +18°C° 0 mm 1 mps 768 mmHg 46%
    08:00 +20°C° 0 mm 1 mps 768 mmHg 41%
    09:00 +21°C° 0 mm 1 mps 768 mmHg 38%
    10:00 +22°C° 0 mm 1 mps 768 mmHg 35%
    11:00 +24°C° 0 mm 1 mps 768 mmHg 32%
    12:00 +24°C° 0 mm 1 mps 767 mmHg 30%
    13:00 +25°C° 0 mm 1 mps 767 mmHg 29%
    14:00 +26°C° 0 mm 2 mps 767 mmHg 28%
    15:00 +25°C° 0 mm 2 mps 767 mmHg 29%
    16:00 +25°C° 0 mm 2 mps 766 mmHg 31%
    17:00 +25°C° 0 mm 3 mps 766 mmHg 33%
    18:00 +22°C° 0 mm 3 mps 766 mmHg 37%
    19:00 +21°C° 0 mm 3 mps 766 mmHg 41%
    20:00 +19°C° 0 mm 3 mps 767 mmHg 44%
    21:00 +19°C° 0 mm 3 mps 767 mmHg 47%
    22:00 +18°C° 0 mm 3 mps 767 mmHg 49%
    23:00 +18°C° 0 mm 3 mps 767 mmHg 51%

    Tomorrow, 19 September, Wednesday

    Time Temperature Precipitation Wind Pressure Humidity
    00:00 +18°C° 0 mm 3 mps 767 mmHg 53%
    01:00 +17°C° 0 mm 3 mps 767 mmHg 55%
    02:00 +17°C° 0 mm 3 mps 767 mmHg 57%
    03:00 +17°C° 0 mm 3 mps 767 mmHg 58%
    04:00 +17°C° 0 mm 3 mps 767 mmHg 59%
    05:00 +16°C° 0 mm 3 mps 767 mmHg 60%
    06:00 +18°C° 0 mm 2 mps 767 mmHg 55%
    07:00 +19°C° 0 mm 2 mps 767 mmHg 51%
    08:00 +21°C° 0 mm 2 mps 767 mmHg 46%
    09:00 +23°C° 0 mm 2 mps 767 mmHg 43%
    10:00 +25°C° 0 mm 1 mps 767 mmHg 39%
    11:00 +27°C° 0 mm 1 mps 767 mmHg 35%
    12:00 +27°C° 0 mm 1 mps 767 mmHg 34%
    13:00 +28°C° 0 mm 1 mps 767 mmHg 32%
    14:00 +29°C° 0 mm 2 mps 767 mmHg 30%
    15:00 +28°C° 0 mm 2 mps 766 mmHg 32%
    16:00 +28°C° 0 mm 2 mps 766 mmHg 34%
    17:00 +28°C° 0 mm 2 mps 766 mmHg 35%
    18:00 +26°C° 0 mm 2 mps 766 mmHg 38%
    19:00 +24°C° 0 mm 2 mps 766 mmHg 41%
    20:00 +23°C° 0 mm 2 mps 766 mmHg 44%
    21:00 +21°C° 0 mm 2 mps 766 mmHg 46%
    22:00 +21°C° 0 mm 2 mps 766 mmHg 47%
    23:00 +20°C° 0 mm 2 mps 766 mmHg 48%

    Day after tomorrow, 20 September, Thursday

    Time Temperature Precipitation Wind Pressure Humidity
    00:00 +20°C° 0 mm 2 mps 766 mmHg 48%
    01:00 +20°C° 0 mm 2 mps 766 mmHg 49%
    02:00 +19°C° 0 mm 2 mps 766 mmHg 49%
    03:00 +19°C° 0 mm 2 mps 766 mmHg 50%
    04:00 +19°C° 0 mm 2 mps 766 mmHg 50%
    05:00 +18°C° 0 mm 3 mps 766 mmHg 51%
    06:00 +20°C° 0 mm 2 mps 766 mmHg 47%
    07:00 +23°C° 0 mm 2 mps 766 mmHg 44%
    08:00 +24°C° 0 mm 2 mps 766 mmHg 40%
    09:00 +26°C° 0 mm 2 mps 766 mmHg 37%
    10:00 +27°C° 0 mm 2 mps 766 mmHg 33%
    11:00 +29°C° 0 mm 2 mps 766 mmHg 29%
    12:00 +29°C° 0 mm 2 mps 765 mmHg 27%
    13:00 +30°C° 0 mm 1 mps 765 mmHg 26%
    14:00 +31°C° 0 mm 1 mps 765 mmHg 24%
    15:00 +30°C° 0 mm 1 mps 764 mmHg 26%
    16:00 +30°C° 0 mm 1 mps 764 mmHg 28%
    17:00 +29°C° 0 mm 2 mps 764 mmHg 30%
    18:00 +27°C° 0 mm 2 mps 764 mmHg 32%
    19:00 +26°C° 0 mm 1 mps 764 mmHg 35%
    20:00 +24°C° 0 mm 1 mps 764 mmHg 38%
    21:00 +23°C° 0 mm 1 mps 764 mmHg 39%
    22:00 +23°C° 0 mm 1 mps 764 mmHg 41%
    23:00 +22°C° 0 mm 1 mps 764 mmHg 43%

    21 September, Friday

    Time Temperature Precipitation Wind Pressure Humidity
    00:00 +22°C° 0 mm 1 mps 764 mmHg 43%
    01:00 +21°C° 0 mm 1 mps 764 mmHg 44%
    02:00 +21°C° 0 mm 1 mps 764 mmHg 45%
    03:00 +20°C° 0 mm 2 mps 764 mmHg 45%
    04:00 +19°C° 0 mm 2 mps 764 mmHg 45%
    05:00 +19°C° 0 mm 3 mps 764 mmHg 46%
    06:00 +20°C° 0 mm 3 mps 764 mmHg 44%
    07:00 +22°C° 0 mm 3 mps 764 mmHg 42%
    08:00 +24°C° 0 mm 3 mps 764 mmHg 40%
    09:00 +26°C° 0 mm 3 mps 764 mmHg 37%
    10:00 +28°C° 0 mm 3 mps 764 mmHg 34%
    11:00 +30°C° 0 mm 3 mps 764 mmHg 30%
    12:00 +30°C° 0 mm 2 mps 763 mmHg 29%
    13:00 +31°C° 0 mm 2 mps 763 mmHg 28%
    14:00 +31°C° 0 mm 2 mps 763 mmHg 26%
    15:00 +31°C° 0 mm 2 mps 763 mmHg 28%
    16:00 +30°C° 0 mm 2 mps 762 mmHg 30%
    17:00 +29°C° 0 mm 2 mps 762 mmHg 32%
    18:00 +28°C° 0 mm 2 mps 762 mmHg 35%
    19:00 +26°C° 0 mm 2 mps 762 mmHg 38%
    20:00 +24°C° 0 mm 2 mps 762 mmHg 41%
    21:00 +23°C° 0 mm 2 mps 762 mmHg 43%
    22:00 +23°C° 0 mm 1 mps 762 mmHg 45%
    23:00 +22°C° 0 mm 1 mps 762 mmHg 47%

    22 September, Saturday

    Time Temperature Precipitation Wind Pressure Humidity
    00:00 +22°C° 0 mm 1 mps 762 mmHg 49%
    01:00 +21°C° 0 mm 1 mps 762 mmHg 50%
    02:00 +21°C° 0 mm 1 mps 762 mmHg 51%
    03:00 +20°C° 0 mm 2 mps 762 mmHg 51%
    04:00 +19°C° 0 mm 2 mps 762 mmHg 52%
    05:00 +19°C° 0 mm 2 mps 762 mmHg 52%
    06:00 +21°C° 0 mm 3 mps 762 mmHg 49%
    07:00 +22°C° 0 mm 3 mps 762 mmHg 46%
    08:00 +24°C° 0 mm 3 mps 762 mmHg 43%
    09:00 +26°C° 0 mm 3 mps 761 mmHg 39%
    10:00 +28°C° 0 mm 3 mps 761 mmHg 36%
    11:00 +29°C° 0 mm 3 mps 761 mmHg 32%
    12:00 +30°C° 0 mm 2 mps 761 mmHg 30%
    13:00 +30°C° 0 mm 2 mps 760 mmHg 28%
    14:00 +31°C° 0 mm 2 mps 760 mmHg 26%
    15:00 +30°C° 0 mm 2 mps 760 mmHg 28%
    16:00 +29°C° 0 mm 3 mps 759 mmHg 31%
    17:00 +29°C° 0 mm 3 mps 759 mmHg 33%
    18:00 +27°C° 0 mm 3 mps 759 mmHg 38%
    19:00 +25°C° 0 mm 3 mps 759 mmHg 44%
    20:00 +22°C° 0 mm 3 mps 759 mmHg 49%
    21:00 +21°C° 0 mm 3 mps 759 mmHg 51%
    22:00 +20°C° 0 mm 2 mps 759 mmHg 54%
    23:00 +20°C° 0 mm 2 mps 758 mmHg 57%

    23 September, Sunday

    Time Temperature Precipitation Wind Pressure Humidity
    00:00 +19°C° 0 mm 2 mps 758 mmHg 59%
    01:00 +19°C° 0 mm 2 mps 758 mmHg 62%
    02:00 +18°C° 0 mm 2 mps 758 mmHg 64%
    03:00 +18°C° 0 mm 3 mps 757 mmHg 66%
    04:00 +18°C° 0 mm 3 mps 757 mmHg 68%
    05:00 +18°C° 0 mm 3 mps 757 mmHg 70%
    06:00 +19°C° 0 mm 5 mps 757 mmHg 69%
    07:00 +19°C° 0 mm 6 mps 758 mmHg 67%
    08:00 +20°C° 0 mm 8 mps 758 mmHg 66%
    09:00 +20°C° 0.1 mm 8 mps 758 mmHg 63%
    10:00 +18°C° 0.1 mm 9 mps 758 mmHg 61%
    11:00 +18°C° 0.1 mm 9 mps 758 mmHg 59%
    12:00 +17°C° 0.1 mm 9 mps 758 mmHg 61%
    13:00 +16°C° 0.1 mm 9 mps 758 mmHg 63%
    14:00 +14°C° 0.1 mm 10 mps 758 mmHg 65%
    15:00 +13°C° 0.1 mm 10 mps 758 mmHg 65%
    16:00 +13°C° 0.1 mm 10 mps 759 mmHg 66%
    17:00 +12°C° 0.1 mm 10 mps 759 mmHg 66%
    18:00 +12°C° 0 mm 10 mps 759 mmHg 65%
    19:00 +12°C° 0 mm 9 mps 759 mmHg 65%
    20:00 +12°C° 0 mm 9 mps 759 mmHg 64%
    21:00 +12°C° 0 mm 9 mps 759 mmHg 62%
    22:00 +12°C° 0 mm 9 mps 759 mmHg 61%
    23:00 +12°C° 0 mm 9 mps 759 mmHg 60%
    Show more